This is the latest recevied weather packets stored in our database for station/object VE3MNX. If no packets are shown the sender has not sent any weather packets the latest 10 day(s).
| Time | Temp. | Humidity | Pressure | Rain* | Wind** | Luminosity | Snow |
|---|---|---|---|---|---|---|---|
| 1777853292 | 11.11° C | 79% | 1008.5 hPa | 0 mm | - | - | - |
| 1777852392 | 11.11° C | 78% | 1008.1 hPa | 0 mm | - | - | - |
| 1777851493 | 11.67° C | 78% | 1008.5 hPa | 0 mm | - | - | - |
| 1777850593 | 11.67° C | 76% | 1008.5 hPa | 0 mm | - | - | - |
| 1777849691 | 11.67° C | 77% | 1008.8 hPa | 0 mm | - | - | - |
| 1777847892 | 12.22° C | 76% | 1008.8 hPa | 0 mm | - | - | - |
| 1777846992 | 12.78° C | 72% | 1008.5 hPa | 0 mm | - | - | - |
| 1777846092 | 12.78° C | 73% | 1008.8 hPa | 0 mm | - | - | - |
| 1777845192 | 12.78° C | 74% | 1008.8 hPa | 0 mm | - | - | - |
| 1777844292 | 12.78° C | 75% | 1008.8 hPa | 0 mm | - | - | - |
| 1777843393 | 13.33° C | 72% | 1008.8 hPa | 0 mm | - | - | - |
| 1777842492 | 13.33° C | 73% | 1008.8 hPa | 0 mm | - | - | - |
| 1777841592 | 13.33° C | 73% | 1008.8 hPa | 0 mm | - | - | - |
| 1777840692 | 13.33° C | 73% | 1008.8 hPa | 0 mm | - | - | - |
| 1777839793 | 13.33° C | 71% | 1009.1 hPa | 0 mm | - | - | - |
| 1777838892 | 13.33° C | 72% | 1009.1 hPa | 0 mm | - | - | - |
| 1777837994 | 13.89° C | 71% | 1009.5 hPa | 0 mm | - | - | - |
| 1777837093 | 11.67° C | 84% | 1009.8 hPa | 0 mm | - | - | - |
| 1777836194 | 13.33° C | 80% | 1009.8 hPa | 0 mm | - | - | - |
| 1777835294 | 12.78° C | 75% | 1010.2 hPa | 0 mm | - | - | - |
| 1777834398 | 12.78° C | 79% | 1010.2 hPa | 0 mm | - | - | - |
| 1777833496 | 12.78° C | 77% | 1010.5 hPa | 0 mm | - | - | - |
| 1777832593 | 12.78° C | 78% | 1010.8 hPa | 0 mm | - | - | - |
| 1777831694 | 11.67° C | 80% | 1011.2 hPa | 0 mm | - | - | - |
| 1777830794 | 11.11° C | 79% | 1011.2 hPa | 0 mm | - | - | - |
* Rain latest hour (hover to see other rain measurements)
** Current wind speed in m/s (hover to see current wind gust speed)